Regional Weather Roundup
Issued by NWS State College, PA

Home | Current Version | Previous Version | Text Only | Print | Product List | Glossary On
Versions: 1 2 3 4 5 6 7 8 9 10 11 12 13 14 15 16 17 18 19 20 21 22 23 24 25 26 27 28 29 30 31 32 33 34 35 36 37 38 39 40 41 42 43 44 45 46 47 48 49 50
589
ASUS41 KCTP 022210
RWRCTP

REGIONAL WEATHER ROUNDUP
NATIONAL WEATHER SERVICE STATE COLLEGE PA
600 PM EDT MON MAY 02 2016

Note: "fair" indicates few or no clouds below 12,000 feet with no
significant weather and/or obstructions to visibility.

* = STATION THAT DOES NOT REPORT PRECIPITATION /E.G. RAIN...SNOW...ETC/
    THUNDER OR FOG.

PAZ002>004-007>009-013>016-020>023-029>032-022300-
WESTERN PENNSYLVANIA

CITY           SKY/WX    TMP DP  RH WIND       PRES   REMARKS
ERIE           CLOUDY    47  41  80 NE9       29.98F
MEADVILLE      CLOUDY    46  43  89 N7        29.95F
FRANKLIN*      PTSUNNY   52  45  76 N5        29.96F
NEW CASTLE     CLOUDY    53  47  79 N8        29.95F
BEAVER COUNTY  CLOUDY    54  46  76 NW5       29.93F
BUTLER*        CLOUDY    55  46  71 NW5       29.95F
PITTSBURGH INT CLOUDY    59  48  67 N10       29.91F
PITTSBURGH     CLOUDY    61  50  67 N12       29.90S
INDIANA*       CLOUDY    63  50  63 VRB6      29.95R
LATROBE        CLOUDY    64  54  68 N10       29.92R
WASHINGTON CO* CLOUDY    63  52  67 N7        29.92S
$$

PAZ004>006-010>012-017>019-024>028-033>037-041-042-045-046-049>053-022300-
CENTRAL PENNSYLVANIA

CITY           SKY/WX    TMP DP  RH WIND       PRES   REMARKS
BRADFORD       CLOUDY    52  46  80 NW7       29.95S
DUBOIS         CLOUDY    58  47  66 NW7       29.92R
CLEARFIELD     CLOUDY    64  47  53 NW7       29.92R
JOHNSTOWN      CLOUDY    63  48  58 NW12      29.92R
ALTOONA        PTSUNNY   71  53  52 N12       29.88R
STATE COLLEGE  PTSUNNY   68  50  52 W12       29.88R
WILLIAMSPORT   CLOUDY    65  54  67 S3        29.87S
SELINSGROVE    CLOUDY    67  56  67 N8        29.87S
FT INDIANTOWN  MOSUNNY   62  61  98 E3        29.87S
CAPITAL CITY   MOSUNNY   66  57  72 E8        29.86S
HARRISBURG     PTSUNNY   67  58  72 E7        29.85S
YORK           SUNNY     74  63  68 E8        29.83S
$$

PAZ038>040-043-044-047-048-054-055-060>062-067>071-022300-
EASTERN PENNSYLVANIA

CITY           SKY/WX    TMP DP  RH WIND       PRES   REMARKS
SCRANTON       CLOUDY    60  49  66 NW10      29.91S
MOUNT POCONO   CLOUDY    55  49  80 NW7       29.90F
ALLENTOWN      MOSUNNY   62  54  74 SW3       29.89F
QUAKERTOWN*    CLOUDY    59  55  88 SW3       29.91F
READING        PTSUNNY   64  55  72 N5        29.88R
LANCASTER      PTSUNNY   67  60  78 E8        29.87S
COATESVILLE    PTCLDY    64  64 100 SE5       29.90S
POTTSTOWN      CLOUDY    60  55  83 NE6       29.91S HAZE
BLUE BELL      CLOUDY    59  54  82 CALM      29.89S
DOYLESTOWN     CLOUDY    59  54  83 CALM      29.90R
WILLOW GROVE   NOT AVBL
NORTH PHILA    CLOUDY    63  55  75 CALM      29.92S
PHILADELPHIA   PTSUNNY   64  55  72 CALM      29.91F
$$




USA.gov is the U.S. government's official web portal to all federal, state and local government web resources and services.